カタログに戻る

SL-12 R/B(2)

運用中GEO
NORAD 26939·ROCKET BODY·🇷🇺 Russia

打ち上げ Oct 6, 2001 から Baikonur Cosmodrome

Loading…

TLE

最新Source: Space-Track

元期: Aug 29, 2026, 21:58 UTC

1 26939U 01045D   26241.91528713  .00000105  00000-0  00000+0 0  9995
2 26939  13.9445  11.5149 0025288  31.2789 312.6322  1.00249947 91468

AllMySatでSL-12 R/B(2)をリアルタイム追跡

Download on the App Store